Regional Weather Roundup
Issued by NWS Boston, MA

Current Version | Previous Version | Text Only | Print | Product List | Glossary Off
Versions: 1 2 3 4 5 6 7 8 9 10 11 12 13 14 15 16 17 18 19 20 21 22 23 24 25 26 27 28 29 30 31 32 33 34 35 36 37 38 39 40 41 42 43 44 45 46 47 48 49 50
000 ASUS41 KBOX 200810 RWRBOX REGIONAL WEATHER ROUNDUP NATIONAL WEATHER SERVICE BOSTON/NORTON MA 400 AM EDT MON AUG 20 2018 NOTE: "FAIR" INDICATES FEW OR NO CLOUDS BELOW 12,000 FEET WITH NO SIGNIFICANT WEATHER AND/OR OBSTRUCTIONS TO VISIBILITY. MAZALL-200900- EASTERN MASSACHUSETTS CITY SKY/WX TMP DP RH WIND PRES REMARKS BOSTON CLOUDY 68 63 84 N10 30.11S BEVERLY CLOUDY 66 64 93 N8 30.11S LAWRENCE CLOUDY 66 61 84 N9 30.14F BEDFORD CLOUDY 64 62 93 NE5 30.11S BLUE HILL N/A 63 63 100 NE9 30.11R NORWOOD CLOUDY 69 65 86 N6 30.10R MARSHFIELD CLOUDY 68 64 88 NE8G15 30.09S PLYMOUTH CLOUDY 67 64 90 N9 30.09R TAUNTON CLOUDY 67 64 90 VRB5 30.08S NEW BEDFORD CLOUDY 66 66 100 N8 30.07R FOG $$ MAZALL-200900- CAPE COD AND THE ISLANDS CITY SKY/WX TMP DP RH WIND PRES REMARKS FALMOUTH CLOUDY 64 64 100 NE17 30.07S FOG HYANNIS LGT RAIN 67 66 97 N13 30.05R FOG CHATHAM CLOUDY 66 66 100 NE7 30.06S FOG PROVINCETOWN LGT RAIN 65 64 97 NE9 30.08S NANTUCKET LGT RAIN 66 66 100 NE9 30.03S FOG MARTHAS VNYRD LGT RAIN 67 67 100 N12 30.05S FOG $$ MAZALL-200900- CENTRAL AND WESTERN MASSACHUSETTS CITY SKY/WX TMP DP RH WIND PRES REMARKS WORCESTER CLOUDY 60 60 100 N8 30.13S FOG FITCHBURG CLOUDY 63 59 87 N6 30.14S ORANGE CLOUDY 61 58 90 CALM 30.15S SPRINGFIELD CLOUDY 64 60 87 NE3 30.11S WESTFIELD CLOUDY 65 59 81 N7 30.12S NORTH ADAMS FAIR 59 56 89 CALM 30.14S PITTSFIELD FAIR 57 54 89 CALM 30.14S $$ RIZALL-200900- RHODE ISLAND CITY SKY/WX TMP DP RH WIND PRES REMARKS PROVIDENCE CLOUDY 67 64 90 NE12 30.10R NEWPORT CLOUDY 66 65 96 N10 30.08R BLOCK ISLAND CLOUDY 67 66 97 NE12G17 30.07S SMITHFIELD CLOUDY 63 63 100 NE10 30.11S WESTERLY CLOUDY 67 66 97 N6 30.08S $$ CTZALL-200900- CONNECTICUT CITY SKY/WX TMP DP RH WIND PRES REMARKS BRADLEY INTL MOCLDY 65 60 84 N6 30.11S HARTFORD CLOUDY 66 60 81 N8 30.10F BRIDGEPORT CLOUDY 68 59 73 NE10 30.09S DANBURY CLOUDY 64 59 83 NE6 30.12S GROTON CLOUDY 66 62 87 N8 30.07F NEW HAVEN CLOUDY 67 60 78 N8 30.09S CHESTER CLOUDY 64 61 88 N6 30.10S MERIDEN CLOUDY 66 59 78 N7 30.10S WILLIMANTIC CLOUDY 65 63 93 N6 30.11S OXFORD CLOUDY 63 59 87 NE9 30.12S $$ MEZ002-015-021-024-NHZ003-005-008-011-012-014-VTZ005-008-200900- NORTHERN NEW ENGLAND CITY SKY/WX TMP DP RH WIND PRES REMARKS PORTLAND ME FAIR 61 58 90 CALM 30.15F BANGOR ME FAIR 58 56 93 N5 30.17S CONCORD NH FAIR 60 58 92 NW6 30.15S MANCHESTER NH CLOUDY 65 60 84 NE6 30.12S NASHUA NH NOT AVBL PORTSMOUTH NH CLOUDY 64 60 87 NE3 30.12 JAFFREY NH CLOUDY 60 59 96 CALM 30.16F KEENE NH FAIR N/A N/A N/A CALM 30.16R BURLINGTON VT FAIR 63 57 81 S6 30.15R MT. WASHINGTON PTCLDY 46 12 25 N6 N/A $$ NYZ052-076-200900- EASTERN NEW YORK CITY SKY/WX TMP DP RH WIND PRES REMARKS ALBANY FAIR 60 56 86 N3 30.15R NEW YORK CITY CLOUDY 69 60 73 N9 30.08S $$ ANZALL-200900- MARINE OBSERVATIONS STATION/POSITION TIME TEMP WIND PRES VSBY WAVE AIR SEA DIR/SP/G HT/PER (UTC) (F) (DEG/KT/KT) (MB) (MI) (FT/S) BOSTON BUOY 0750 67 67 30/ 16/ 17 1018.4F 5/ 6 BUZZARDS BAY 0700 67 30/ 20/ 21 1018.0S NANTUCKET SOUND 0750 68 75 40/ 16/ 17 1017.4R 2/ 4 MASS BAY-STELLWA 0704 67 66 30/ 16/ 19 1017.6S 1 7/8 4/ 6 ISLE OF SHOALS 0700 63 10/ 13/ 15 1019.6F S OF BLOCK IS 0743 72 N/A 3/ 4 $$ ......................KEY......................... SKY/WX - SKY CONDITION/PRESENT WEATHER TMP - TEMPERATURE IN FAHRENHEIT DWPT - DEWPOINT IN FAHRENHEIT RH - RELATIVE HUMIDITY IN PERCENT WIND - DIRECTION AND SPEED IN MPH PRES - MEAN SEA LEVEL PRESSURE IN INCHES OF HG WCI - WIND CHILL INDEX VSB - VISIBILITY IN MILES HX - HEAT INDEX TC - TEMPERATURE IN CELSIUS VRB - VARIABLE WIND DIRECTION N/A - NOT AVAILABLE

USA.gov is the U.S. government's official web portal to all federal, state and local government web resources and services.